Location: Milton Keynes
(52.0316°N, 0.7531°W)
Time: 15:53:08
(UTC+00:00)

X-37B - Pass Details

Date: 06 December 2023
Orbit: 259 x 286 km, 43.2° (Epoch: 06 October)

Event Time Altitude Azimuth Distance (km) Brightness Sun altitude
Rises 16:40:35 0° 241° (WSW) 1,849 8.3 -7.1°
Reaches altitude 10° 16:43:45 10° 193° (SSW) 1,036 4.9 -7.5°
Maximum altitude 16:44:07 10° 184° (S) 1,022 4.7 -7.5°
Drops below altitude 10° 16:44:28 10° 175° (S) 1,032 4.5 -7.6°
Sets 16:47:35 0° 127° (SE) 1,806 5.2 -8.0°
